Home > Weather > Vila Nova de Gaia > Past weeks

Flag for Portugal Past Weather in Vila Nova de Gaia, Portugal — Yesterday and Last 2 Weeks

Now
61 °F

Passing clouds.


Feels Like: 61 °F
Forecast: 64 / 77 °F
Wind: 6 mph from North

Location: Porto / Pedras Rubras

Current Time: Jun 26, 2016 at 7:22:51 AM

Latest Report: Jun 26, 2016 at 7:00 AM


Visibility: N/A

Pressure: 30.01 "Hg

Humidity: 83%

Dew Point: 55 °F

Location of Vila Nova de GaiaLocation

Past Weather in Vila Nova de Gaia — Graph

°F

Vila Nova de Gaia Temperature Yesterday

Maximum temperature yesterday: 77 °F (at 3:30 PM)
Minimum temperature yesterday: 55 °F (at 6:00 AM)
Average temperature yesterday: 67 °F

High & Low Weather Summary for the Past Weeks

 TemperatureHumidityPressure
High81 °F (Jun 21, 3:30 PM)100% (Jun 11, 6:00 AM)30.36 "Hg (Jun 11, 6:00 AM)
Low52 °F (Jun 11, 6:00 AM)53% (Jun 18, 12:00 PM)29.74 "Hg (Jun 15, 5:30 AM)
Average64 °F85%30.08 "Hg
* Reported Jun 11 6:00 AM — Jun 26 6:00 AM, Vila Nova de Gaia, Weather by CustomWeather, © 2016

Note: Actual official high and low records may vary slightly from our data, if they occured in-between our weather recording intervals... More about our weather records

Advertising

Vila Nova de Gaia Weather History for the Previous 24 Hours

Scroll right to see more
 ConditionsComfort  
Time TempWeatherWind HumidityBarometerVisibility
6:00 AM
Sun, Jun 26
57 °FClear.6 mph94%29.98 "Hg10 mi
5:00 AM59 °FClear.6 mph88%29.98 "Hg10 mi
4:30 AM59 °FClear.5 mph88%29.98 "Hg10 mi
4:00 AM61 °FClear.5 mph83%29.98 "Hg10 mi
3:30 AM61 °FClear.5 mph83%29.98 "Hg10 mi
3:00 AM61 °FClear.5 mph83%29.98 "Hg10 mi
2:30 AM61 °FClear.No wind88%29.98 "Hg10 mi
2:00 AM61 °FClear.3 mph88%29.98 "Hg10 mi
1:30 AM63 °FClear.6 mph83%29.98 "Hg10 mi
1:00 AM61 °FClear.6 mph88%29.98 "Hg10 mi
12:30 AM63 °FClear.5 mph83%29.98 "Hg10 mi
12:00 AM63 °FClear.7 mph83%29.98 "Hg10 mi
11:30 PM
Sat, Jun 25
63 °FClear.7 mph83%29.98 "Hg10 mi
11:00 PM63 °FPassing clouds.3 mph83%29.98 "HgN/A
10:30 PM63 °FClear.7 mph83%29.98 "Hg10 mi
10:00 PM64 °FSunny.8 mph78%29.98 "Hg10 mi
9:30 PM66 °FSunny.9 mph73%29.98 "Hg10 mi
9:00 PM68 °FSunny.10 mph69%29.98 "Hg10 mi
8:30 PM70 °FSunny.10 mph64%29.98 "Hg10 mi
8:00 PM72 °FSunny.10 mph65%29.98 "Hg10 mi
7:30 PM73 °FSunny.12 mph61%29.98 "Hg10 mi
7:00 PM75 °FSunny.12 mph57%29.98 "Hg10 mi
6:30 PM75 °FPassing clouds.17 mph57%29.98 "HgN/A
6:00 PM75 °FPassing clouds.12 mph57%29.98 "HgN/A
5:30 PM75 °FPassing clouds.13 mph57%29.98 "HgN/A
5:00 PM77 °FPassing clouds.13 mph54%29.98 "HgN/A
4:30 PM77 °FPassing clouds.13 mph57%30.01 "HgN/A
4:00 PM77 °FPassing clouds.13 mph57%30.01 "HgN/A
3:30 PM77 °FPassing clouds.13 mph57%30.01 "HgN/A
3:00 PM75 °FPassing clouds.13 mph61%30.01 "HgN/A
2:30 PM75 °FPassing clouds.16 mph61%30.04 "HgN/A
2:00 PM73 °FPassing clouds.13 mph65%30.04 "HgN/A
1:30 PM75 °FPassing clouds.12 mph61%30.04 "HgN/A
1:00 PM73 °FPassing clouds.10 mph69%30.04 "HgN/A
12:30 PM73 °FPassing clouds.12 mph65%30.04 "HgN/A
12:00 PM73 °FSunny.8 mph65%30.07 "Hg10 mi
11:30 AM72 °FPassing clouds.7 mph69%30.07 "HgN/A
11:00 AM73 °FPassing clouds.6 mph65%30.07 "HgN/A
10:30 AM70 °FPassing clouds.7 mph73%30.07 "HgN/A
10:00 AM70 °FPassing clouds.7 mph69%30.07 "HgN/A
9:30 AM68 °FPassing clouds.7 mph73%30.07 "HgN/A
9:00 AM66 °FPassing clouds.7 mph78%30.07 "HgN/A
8:30 AM63 °FSunny.7 mph88%30.07 "Hg10 mi
8:00 AM61 °FSunny.7 mph94%30.07 "Hg10 mi
7:30 AM59 °FPassing clouds.3 mph94%30.07 "HgN/A
7:00 AM57 °FPassing clouds.5 mph94%30.07 "HgN/A
Weather by CustomWeather, © 2016

See weather overviewHow to use our weather pages